SKYKRAFT-4A (64872 NORAD) Tracking and Keplerian Element Data

This shows tracking and keplerian element data for the satellite.

Feedback or suggestion? Click here.




ElementValue
Catalog64872
NameSKYKRAFT-4A
Epoch Orbit2228
Epoch Day354.22619707
Epoch Year2025
RAAN57.2453
Inclination97.6932
Eccentricity0.0005915
Argument of Perigee130.2854
Mean Anonmoly229.8885
Mean Motion14.94722315
Decay Rate4.523E-05
L11 64872U 25154D 25354.22619707 .00004523 00000+0 42160-3 0 9996
L22 64872 97.6932 57.2453 0005915 130.2854 229.8885 14.94722315 22288



Live tracking and technical data element details for SKYKRAFT-4A (NORAD 64872). SKYKRAFT-4A can be tracked NOW for your location showing map with azimuth and elevation plus other details from your city location.







IsCatalogInMostPopularTable: catalog: 64872, numindb: 10
Update: records affected: 1



GetName: 64872 SKYKRAFT-4A

Hit Count: updated at: Mon, 20 Apr 2026 09:00:05 GMT